Showing default

CUBEL, 47448

Orbit data source: Space-Track

CUBEL, 47448 is a payload satellite owned by DLR (DE) in SSO that was launched on Sun, 24 Jan 2021 UTC via an FALCON 9 launch vehicle from the Air Force Eastern Test Range (AFETR). Payload-class satellites include a variety of spacecraft equipped with specific instruments for various scientific and technological missions. These include communications satellites like Starlink; space stations such as the ISS; scientific satellites like the Hubble; Earth observation satellites from companies like Planet Labs, Umbra, and HawkEye 360; GPS; miniature CubeSats for education and research; and military/defense satellites.

Loading next visibility...
Identifier
47448, 2021-006AM
Orbit
SSO
Country
Flag of DEDE / GER
Related business
Manufacturer
DLR2/GOMSP
Mission
Operational Civil Technology
Bus & Motor
CUBESAT 3U, Unknown motor
Mass
4 kg wet, 4 kg dry
Launch date (UTC)
2021-01-24 (5 years ago)
Launch vehicle
FALCON 9
Launch site
Air Force Eastern Test Range (AFETR)
Object type
Payload
Rocket body
Debris
Shape & HBR
Box, Unknown HBR
Radar Cross Section
0.035 m², Small (<0.1 m²)

Expand to show TLE details & history
Last TLE update: 15 hours ago

TLE from 15 hours ago
0 CUBEL
1 47448U 21006AM  26145.56250056  .00008033  00000-0  19942-3 0  9995
2 47448  97.2352 196.3696 0004980 245.6661 114.4066 15.40595955296274
Epoch: 2026-05-25T13:30Z
TLE epoch observation values (Epoch: 2026-05-25T13:30:00.048Z)
Latitude
-0.00002°
Longitude
110.7209°
Altitude
448.878 km
Speed
7.642 km/s
True Right ascension
13h 05m 28s
True Declination
0° 00' 00"
Sunlit
Object was in full shadow at epoch
Visualization orbit readout
Latitude
Unknown
Longitude
Unknown
Altitude
Unknown
Speed
Unknown
Apparent Right ascension
Unknown
Apparent Declination
Unknown
Sunlit
N/A
Visualization observer readout
Local Sidereal Time
14:00:36
Azimuth
Unknown
Elevation
Unknown
Doppler factor
Unknown
Orbital elements
Apogee altitude
444.677 km
Perigee altitude
437.884 km
Semi-major axis
6,819.417 km
Eccentricity
0.0005
Inclination
97.2352°
RAAN
196.3696°
Arg. of periapsis
245.6661°
True anomaly
114.45855°
Mean anomaly
114.4066°
Eccentric anomaly
114.43258°
Mean motion
3.85409 °/min
Orbital period
93.41 mins
BSTAR
0.00019942
Loading maneuver chart data...
Computing Atmospheric mass density...

Documentation

Showing up to 5 results
|